Flag for Germany Weather past 2 weeks in Bergheim, North Rhine-Westphalia, Germany

Now
52 °F

Broken clouds.


Feels Like: 51 °F
Forecast: 41 / 64 °F
Wind: 5 mph from West

Location: Noervenich

Current Time: May 26, 2015 at 10:12:42 AM

Latest Report: May 26, 2015 at 9:20 AM


Visibility: N/A

Pressure: 30.12 "Hg

Humidity: 72%

Dew point: 43 °F

Location of BergheimLocation

Historic Weather in Bergheim — Graph

°F

Bergheim temperature yesterday

Maximum temperature yesterday: 61 °F (at 5:20 PM)
Minimum temperature yesterday: 50 °F (at 3:20 AM)
Average temperature yesterday: 55 °F

Past Weeks' High & Low Weather Summary

 TemperatureHumidityPressure
High81 °F (May 11, 4:20 PM)100% (May 15, 1:20 AM)30.33 "Hg (May 15, 1:20 AM)
Low39 °F (May 21, 5:20 AM)30% (May 11, 4:20 PM)29.65 "Hg (May 18, 7:20 PM)
Average56 °F67%30.06 "Hg
* Reported May 11 8:20 AM — May 26 8:20 AM, Bergheim, Weather by CustomWeather, © 2015

Note: Actual official high and low records may vary slightly from our data, if they occured in-between our weather recording intervals... More about our weather records

Advertising

Bergheim weather history for previous 24 hours

 ConditionsComfort  
Time TempWeatherWind HumidityBarometerVisibility
8:20 AM
Tue, May 26
50 °FPartly sunny.5 mph76%30.09 "HgN/A
7:20 AM48 °FPartly sunny.6 mph82%30.09 "HgN/A
6:20 AM48 °FPartly cloudy.3 mph82%30.07 "HgN/A
5:20 AM48 °FPassing clouds.6 mph82%30.07 "HgN/A
4:20 AM50 °FPassing clouds.5 mph76%30.07 "HgN/A
3:20 AM50 °FPassing clouds.7 mph76%30.04 "HgN/A
2:20 AM50 °FPartly cloudy.5 mph76%30.04 "HgN/A
1:20 AM52 °FPartly cloudy.7 mph72%30.04 "HgN/A
12:20 AM52 °FPassing clouds.7 mph72%30.04 "HgN/A
11:20 PM
Mon, May 25
54 °FPassing clouds.7 mph67%30.04 "HgN/A
10:20 PM55 °FPartly sunny.6 mph67%30.01 "HgN/A
9:20 PM57 °FPartly sunny.5 mph63%29.98 "HgN/A
8:20 PM57 °FPartly sunny.5 mph63%29.98 "HgN/A
7:20 PM59 °FRefreshingly cool.6 mph59%29.98 "HgN/A
6:20 PM59 °FCool.7 mph63%29.95 "HgN/A
5:20 PM61 °FRefreshingly cool.3 mph59%29.98 "Hg5 mi
4:20 PM59 °FCool.6 mph68%29.98 "Hg5 mi
3:20 PM57 °FCool.6 mph88%29.98 "Hg4 mi
2:20 PM59 °FCool.6 mph82%29.95 "Hg5 mi
1:20 PM59 °FCool.7 mph82%29.98 "Hg5 mi
12:20 PM57 °FCool.7 mph88%29.98 "Hg4 mi
11:20 AM55 °FCool.6 mph94%29.98 "Hg4 mi
10:20 AM52 °FCool.2 mph94%29.98 "Hg3 mi
Weather by CustomWeather, © 2015

See weather overviewHow to use our weather pages